TimeEDT,TemperatureF,Dew PointF,Humidity,Sea Level PressureIn,VisibilityMPH,Wind Direction,Wind SpeedMPH,Gust SpeedMPH,PrecipitationIn,Events,Conditions,WindDirDegrees,DateUTC
12:00 AM,46.4,35.6,66,30.21,15.0,North,9.2,-,N/A,,Overcast,360,2012-10-27 04:00:00
1:00 AM,46.4,35.6,66,30.21,15.0,North,10.4,-,N/A,,Overcast,10,2012-10-27 05:00:00
2:00 AM,47,37,59,30.20,15,NNE,5.8,,,,Overcast,30,2012-10-27 06:00:00
2:00 AM,46.4,37.4,71,30.20,15.0,NNE,5.8,-,N/A,,Overcast,30,2012-10-27 06:00:00
3:00 AM,46.4,39.2,76,30.20,15.0,North,5.8,-,N/A,,Overcast,10,2012-10-27 07:00:00
4:00 AM,46.4,39.2,76,30.18,15.0,North,8.1,-,N/A,,Overcast,10,2012-10-27 08:00:00
5:00 AM,46.4,37.4,71,30.17,15.0,North,13.8,19.6,N/A,,Overcast,360,2012-10-27 09:00:00
6:00 AM,44.6,37.4,76,30.17,15.0,North,13.8,19.6,N/A,,Overcast,360,2012-10-27 10:00:00
7:00 AM,44.6,35.6,71,30.17,15.0,North,15.0,20.7,N/A,,Overcast,360,2012-10-27 11:00:00
8:00 AM,44,36,65,30.19,15,North,10.4,,,,Mostly Cloudy,0,2012-10-27 12:00:00
8:00 AM,44.6,35.6,71,30.19,15.0,North,11.5,19.6,N/A,,Mostly Cloudy,350,2012-10-27 12:00:00
9:00 AM,44.6,37.4,76,30.19,15.0,North,12.7,-,N/A,,Mostly Cloudy,360,2012-10-27 13:00:00
10:00 AM,46.4,39.2,76,30.19,15.0,North,11.5,-,N/A,,Mostly Cloudy,360,2012-10-27 14:00:00
11:00 AM,46.4,39.2,76,30.19,15.0,North,11.5,-,N/A,,Mostly Cloudy,360,2012-10-27 15:00:00
12:00 PM,48.2,39.2,71,30.19,15.0,NNE,13.8,-,N/A,,Mostly Cloudy,20,2012-10-27 16:00:00
1:00 PM,50.0,39.2,66,30.18,15.0,North,15.0,-,N/A,,Overcast,10,2012-10-27 17:00:00
2:00 PM,50,38,53,30.16,15,North,15.0,,,,Mostly Cloudy,10,2012-10-27 18:00:00
2:00 PM,50.0,37.4,62,30.16,15.0,North,13.8,-,N/A,,Mostly Cloudy,10,2012-10-27 18:00:00
3:00 PM,51.8,35.6,54,30.14,15.0,North,15.0,20.7,N/A,,Mostly Cloudy,10,2012-10-27 19:00:00
4:00 PM,51.8,33.8,50,30.14,15.0,North,16.1,-,N/A,,Mostly Cloudy,10,2012-10-27 20:00:00
5:00 PM,51.8,33.8,50,30.14,15.0,NNE,16.1,21.9,N/A,,Mostly Cloudy,30,2012-10-27 21:00:00
6:00 PM,48.2,33.8,58,30.16,15.0,NNE,16.1,-,N/A,,Mostly Cloudy,20,2012-10-27 22:00:00
7:00 PM,46.4,32.0,57,30.18,15.0,North,16.1,-,N/A,,Mostly Cloudy,360,2012-10-27 23:00:00
8:00 PM,47,32,44,30.20,15,North,16.1,,,,Mostly Cloudy,0,2012-10-28 00:00:00
8:00 PM,46.4,32.0,57,30.20,15.0,North,13.8,20.7,N/A,,Mostly Cloudy,360,2012-10-28 00:00:00
10:00 PM,44.6,32.0,61,30.20,15.0,North,16.1,-,N/A,,Mostly Cloudy,360,2012-10-28 02:00:00
11:00 PM,44.6,33.8,66,30.20,15.0,North,9.2,-,N/A,,Mostly Cloudy,360,2012-10-28 03:00:00